contact:dominique.lefevre@mio.osupytheas.fr, maurice.libes@osupytheas.fr, didier.mallarino@osupytheas.fr
Project:EMSO http://www.emso-fr.org/EMSO-France
Depth: 2436.0 m
Title:EMSO Ligure Ouest : Data MII capteur CSTAR
DateTime,Latitude,Longitude,Instrument_Serial,Reference_Counts,Signal_Counts,Corrected_Signal_raw_counts,Calculated_Beam_c_inverse_meters,Internal_thermistor_counts
DateTime,Latitude,Longitude,Instrument_Serial,Reference_Counts,Signal_Counts,Corrected_Signal_raw_counts,Calculated_Beam_c_inverse_meters,Internal_thermistor_counts
2023-04-06T00:00:00,42.805,6.029,CST-1368DR,4331,4720,11573,01.198,551
2023-04-06T00:03:01,42.805,6.029,CST-1368DR,4331,4714,11558,01.204,551
2023-04-06T00:06:03,42.805,6.029,CST-1368DR,4331,4722,11578,01.197,551
2023-04-06T00:09:04,42.805,6.029,CST-1368DR,4331,4710,11549,01.207,551
2023-04-06T00:12:06,42.805,6.029,CST-1368DR,4331,4717,11565,01.201,551
2023-04-06T00:15:07,42.805,6.029,CST-1368DR,4331,4715,11562,01.202,551
2023-04-06T00:18:09,42.805,6.029,CST-1368DR,4331,4723,11581,01.196,551
2023-04-06T00:21:11,42.805,6.029,CST-1368DR,4331,4710,11550,01.206,551
2023-04-06T00:24:12,42.805,6.029,CST-1368DR,4331,4717,11566,01.201,551
2023-04-06T00:27:14,42.805,6.029,CST-1368DR,4331,4719,11570,01.200,551
2023-04-06T00:30:15,42.805,6.029,CST-1368DR,4331,4717,11566,01.201,551
2023-04-06T00:33:17,42.805,6.029,CST-1368DR,4331,4722,11579,01.196,551
2023-04-06T00:36:18,42.805,6.029,CST-1368DR,4331,4709,11547,01.207,551
2023-04-06T00:39:20,42.805,6.029,CST-1368DR,4331,4723,11581,01.196,551
2023-04-06T00:42:22,42.805,6.029,CST-1368DR,4331,4713,11556,01.204,551
2023-04-06T00:45:23,42.805,6.029,CST-1368DR,4331,4717,11566,01.201,551
2023-04-06T00:48:25,42.805,6.029,CST-1368DR,4331,4724,11583,01.195,551
2023-04-06T00:51:26,42.805,6.029,CST-1368DR,4331,4715,11561,01.203,551
2023-04-06T00:54:28,42.805,6.029,CST-1368DR,4331,4724,11583,01.195,551
2023-04-06T00:57:30,42.805,6.029,CST-1368DR,4331,4706,11538,01.211,551
2023-04-06T01:00:31,42.805,6.029,CST-1368DR,4331,4726,11588,01.193,551
2023-04-06T01:03:33,42.805,6.029,CST-1368DR,4331,4724,11582,01.195,551
2023-04-06T01:06:34,42.805,6.029,CST-1368DR,4331,4721,11577,01.197,551
2023-04-06T01:09:36,42.805,6.029,CST-1368DR,4331,4726,11588,01.193,551
2023-04-06T01:12:37,42.805,6.029,CST-1368DR,4331,4726,11588,01.193,551
2023-04-06T01:15:39,42.805,6.029,CST-1368DR,4331,4722,11578,01.197,551
2023-04-06T01:18:41,42.805,6.029,CST-1368DR,4331,4729,11596,01.191,551
2023-04-06T01:21:42,42.805,6.029,CST-1368DR,4331,4716,11563,01.202,551
2023-04-06T01:24:44,42.805,6.029,CST-1368DR,4331,4722,11579,01.196,551
2023-04-06T01:27:45,42.805,6.029,CST-1368DR,4331,4725,11587,01.194,551
2023-04-06T01:30:47,42.805,6.029,CST-1368DR,4331,4723,11581,01.196,551
2023-04-06T01:33:48,42.805,6.029,CST-1368DR,4331,4723,11581,01.196,551
2023-04-06T01:36:50,42.805,6.029,CST-1368DR,4331,4728,11592,01.192,551
2023-04-06T01:39:52,42.805,6.029,CST-1368DR,4331,4719,11571,01.199,551
2023-04-06T01:42:53,42.805,6.029,CST-1368DR,4331,4718,11569,01.200,551
2023-04-06T01:45:55,42.805,6.029,CST-1368DR,4331,4723,11582,01.195,551
2023-04-06T01:48:56,42.805,6.029,CST-1368DR,4331,4716,11565,01.201,551
2023-04-06T01:51:58,42.805,6.029,CST-1368DR,4331,4717,11567,01.201,552
2023-04-06T01:54:59,42.805,6.029,CST-1368DR,4331,4723,11582,01.195,551
2023-04-06T01:58:01,42.805,6.029,CST-1368DR,4331,4722,11578,01.197,551
2023-04-06T02:01:03,42.805,6.029,CST-1368DR,4331,4726,11589,01.193,551
2023-04-06T02:04:04,42.805,6.029,CST-1368DR,4331,4720,11574,01.198,552
2023-04-06T02:07:06,42.805,6.029,CST-1368DR,4331,4719,11572,01.199,551
2023-04-06T02:10:07,42.805,6.029,CST-1368DR,4331,4725,11587,01.194,551
2023-04-06T02:13:09,42.805,6.029,CST-1368DR,4331,4718,11569,01.200,551
2023-04-06T02:16:11,42.805,6.029,CST-1368DR,4331,4723,11580,01.196,551
2023-04-06T02:19:12,42.805,6.029,CST-1368DR,4331,4717,11566,01.201,551
2023-04-06T02:22:14,42.805,6.029,CST-1368DR,4331,4720,11573,01.198,551
2023-04-06T02:25:15,42.805,6.029,CST-1368DR,4331,4724,11582,01.195,551
2023-04-06T02:28:17,42.805,6.029,CST-1368DR,4331,4725,11585,01.194,551
2023-04-06T02:31:18,42.805,6.029,CST-1368DR,4331,4722,11579,01.196,551
2023-04-06T02:34:20,42.805,6.029,CST-1368DR,4331,4714,11559,01.203,551
2023-04-06T02:37:22,42.805,6.029,CST-1368DR,4331,4725,11585,01.194,552
2023-04-06T02:40:23,42.805,6.029,CST-1368DR,4331,4728,11593,01.192,551
2023-04-06T02:43:25,42.805,6.029,CST-1368DR,4331,4721,11577,01.197,551
2023-04-06T02:46:26,42.805,6.029,CST-1368DR,4331,4717,11566,01.201,551
2023-04-06T02:49:28,42.805,6.029,CST-1368DR,4331,4725,11585,01.194,551
2023-04-06T02:52:29,42.805,6.029,CST-1368DR,4331,4720,11574,01.198,551
2023-04-06T02:55:31,42.805,6.029,CST-1368DR,4331,4727,11590,01.193,551
2023-04-06T02:58:33,42.805,6.029,CST-1368DR,4331,4723,11581,01.196,551
2023-04-06T03:01:34,42.805,6.029,CST-1368DR,4331,4722,11579,01.196,551
2023-04-06T03:04:36,42.805,6.029,CST-1368DR,4331,4719,11572,01.199,551
2023-04-06T03:07:37,42.805,6.029,CST-1368DR,4331,4724,11584,01.195,551
2023-04-06T03:10:39,42.805,6.029,CST-1368DR,4331,4722,11579,01.196,551
2023-04-06T03:13:41,42.805,6.029,CST-1368DR,4331,4717,11567,01.201,552
2023-04-06T03:16:42,42.805,6.029,CST-1368DR,4331,4721,11575,01.198,551
2023-04-06T03:19:44,42.805,6.029,CST-1368DR,4331,4728,11592,01.192,551
2023-04-06T03:22:45,42.805,6.029,CST-1368DR,4331,4722,11579,01.196,551
2023-04-06T03:25:47,42.805,6.029,CST-1368DR,4331,4725,11585,01.194,551
2023-04-06T03:28:48,42.805,6.029,CST-1368DR,4331,4724,11582,01.195,551
2023-04-06T03:31:50,42.805,6.029,CST-1368DR,4331,4719,11571,01.199,551
2023-04-06T03:34:52,42.805,6.029,CST-1368DR,4331,4722,11579,01.196,552
2023-04-06T03:37:53,42.805,6.029,CST-1368DR,4331,4723,11581,01.196,551
2023-04-06T03:40:55,42.805,6.029,CST-1368DR,4331,4725,11587,01.194,551
2023-04-06T03:43:56,42.805,6.029,CST-1368DR,4331,4722,11577,01.197,551
2023-04-06T03:46:58,42.805,6.029,CST-1368DR,4331,4723,11581,01.196,551
2023-04-06T03:49:59,42.805,6.029,CST-1368DR,4331,4721,11577,01.197,551
2023-04-06T03:53:01,42.805,6.029,CST-1368DR,4331,4721,11575,01.198,551
2023-04-06T03:56:03,42.805,6.029,CST-1368DR,4331,4727,11590,01.193,552
2023-04-06T03:59:04,42.805,6.029,CST-1368DR,4331,4714,11558,01.204,552
2023-04-06T04:02:06,42.805,6.029,CST-1368DR,4331,4725,11585,01.194,551
2023-04-06T04:05:07,42.805,6.029,CST-1368DR,4331,4720,11574,01.198,552
2023-04-06T04:08:09,42.805,6.029,CST-1368DR,4331,4715,11561,01.203,551
2023-04-06T04:11:11,42.805,6.029,CST-1368DR,4331,4722,11579,01.196,551
2023-04-06T04:14:12,42.805,6.029,CST-1368DR,4331,4722,11577,01.197,551
2023-04-06T04:17:14,42.805,6.029,CST-1368DR,4331,4723,11582,01.195,551
2023-04-06T04:20:15,42.805,6.029,CST-1368DR,4331,4711,11552,01.206,552
2023-04-06T04:23:17,42.805,6.029,CST-1368DR,4331,4722,11577,01.197,551
2023-04-06T04:26:18,42.805,6.029,CST-1368DR,4331,4722,11579,01.196,551
2023-04-06T04:29:20,42.805,6.029,CST-1368DR,4331,4725,11585,01.194,551
2023-04-06T04:32:24,42.805,6.029,CST-1368DR,4331,4725,11587,01.194,551
2023-04-06T04:35:25,42.805,6.029,CST-1368DR,4331,4721,11576,01.197,551
2023-04-06T04:38:27,42.805,6.029,CST-1368DR,4331,4725,11587,01.194,552
2023-04-06T04:41:29,42.805,6.029,CST-1368DR,4331,4723,11580,01.196,551
2023-04-06T04:44:30,42.805,6.029,CST-1368DR,4331,4726,11587,01.194,551
2023-04-06T04:47:32,42.805,6.029,CST-1368DR,4331,4718,11569,01.200,551
2023-04-06T04:50:33,42.805,6.029,CST-1368DR,4331,4727,11590,01.193,551
2023-04-06T04:53:35,42.805,6.029,CST-1368DR,4331,4726,11588,01.193,551
2023-04-06T04:56:36,42.805,6.029,CST-1368DR,4331,4722,11579,01.196,551
2023-04-06T04:59:38,42.805,6.029,CST-1368DR,4331,4724,11584,01.195,551
2023-04-06T05:02:40,42.805,6.029,CST-1368DR,4331,4723,11580,01.196,551
2023-04-06T05:05:41,42.805,6.029,CST-1368DR,4331,4722,11577,01.197,551
2023-04-06T05:08:43,42.805,6.029,CST-1368DR,4331,4728,11594,01.191,551
2023-04-06T05:11:44,42.805,6.029,CST-1368DR,4331,4724,11582,01.195,551
2023-04-06T05:14:46,42.805,6.029,CST-1368DR,4331,4721,11576,01.197,551
2023-04-06T05:17:47,42.805,6.029,CST-1368DR,4331,4720,11574,01.198,551
2023-04-06T05:20:49,42.805,6.029,CST-1368DR,4331,4722,11579,01.196,551
2023-04-06T05:23:51,42.805,6.029,CST-1368DR,4331,4720,11573,01.198,551
2023-04-06T05:26:52,42.805,6.029,CST-1368DR,4331,4730,11599,01.190,551
2023-04-06T05:29:54,42.805,6.029,CST-1368DR,4331,4728,11592,01.192,551
2023-04-06T05:32:55,42.805,6.029,CST-1368DR,4331,4723,11582,01.195,551
2023-04-06T05:35:57,42.805,6.029,CST-1368DR,4331,4723,11580,01.196,551
2023-04-06T05:38:59,42.805,6.029,CST-1368DR,4331,4723,11581,01.196,551
2023-04-06T05:42:00,42.805,6.029,CST-1368DR,4331,4730,11598,01.190,551
2023-04-06T05:45:02,42.805,6.029,CST-1368DR,4331,4724,11582,01.195,551
2023-04-06T05:48:03,42.805,6.029,CST-1368DR,4331,4719,11570,01.200,551
2023-04-06T05:51:05,42.805,6.029,CST-1368DR,4331,4725,11585,01.194,551
2023-04-06T05:54:06,42.805,6.029,CST-1368DR,4331,4726,11587,01.194,551
2023-04-06T05:57:08,42.805,6.029,CST-1368DR,4331,4723,11581,01.196,551
2023-04-06T06:00:10,42.805,6.029,CST-1368DR,4331,4717,11567,01.201,551
2023-04-06T06:03:11,42.805,6.029,CST-1368DR,4331,4724,11582,01.195,551
2023-04-06T06:06:13,42.805,6.029,CST-1368DR,4331,4722,11579,01.196,551
2023-04-06T06:09:14,42.805,6.029,CST-1368DR,4331,4722,11577,01.197,551
2023-04-06T06:12:16,42.805,6.029,CST-1368DR,4331,4717,11567,01.201,551
2023-04-06T06:15:17,42.805,6.029,CST-1368DR,4331,4716,11565,01.201,551
2023-04-06T06:18:19,42.805,6.029,CST-1368DR,4331,4720,11574,01.198,551
2023-04-06T06:21:21,42.805,6.029,CST-1368DR,4331,4722,11579,01.196,552
2023-04-06T06:24:22,42.805,6.029,CST-1368DR,4331,4722,11578,01.197,551
2023-04-06T06:27:24,42.805,6.029,CST-1368DR,4331,4717,11565,01.201,551
2023-04-06T06:30:26,42.805,6.029,CST-1368DR,4331,4716,11564,01.202,551
2023-04-06T06:33:28,42.805,6.029,CST-1368DR,4331,4720,11573,01.198,551
2023-04-06T06:36:30,42.805,6.029,CST-1368DR,4331,4724,11584,01.195,551
2023-04-06T06:39:31,42.805,6.029,CST-1368DR,4331,4719,11571,01.199,551
2023-04-06T06:42:33,42.805,6.029,CST-1368DR,4331,4723,11581,01.196,551
2023-04-06T06:45:34,42.805,6.029,CST-1368DR,4331,4720,11573,01.198,551
2023-04-06T06:48:36,42.805,6.029,CST-1368DR,4331,4717,11566,01.201,551
2023-04-06T06:51:37,42.805,6.029,CST-1368DR,4331,4725,11587,01.194,551
2023-04-06T06:54:39,42.805,6.029,CST-1368DR,4331,4724,11583,01.195,551
2023-04-06T06:57:41,42.805,6.029,CST-1368DR,4331,4722,11578,01.197,551
2023-04-06T07:00:42,42.805,6.029,CST-1368DR,4331,4722,11579,01.196,551
2023-04-06T07:03:44,42.805,6.029,CST-1368DR,4331,4730,11598,01.190,551
2023-04-06T07:06:45,42.805,6.029,CST-1368DR,4331,4722,11579,01.196,551
2023-04-06T07:09:47,42.805,6.029,CST-1368DR,4331,4722,11578,01.197,551
2023-04-06T07:12:48,42.805,6.029,CST-1368DR,4331,4719,11570,01.200,551
2023-04-06T07:15:50,42.805,6.029,CST-1368DR,4331,4725,11587,01.194,551
2023-04-06T07:18:52,42.805,6.029,CST-1368DR,4331,4723,11581,01.196,551
2023-04-06T07:21:53,42.805,6.029,CST-1368DR,4331,4723,11581,01.196,551
2023-04-06T07:24:55,42.805,6.029,CST-1368DR,4331,4725,11587,01.194,551
2023-04-06T07:27:56,42.805,6.029,CST-1368DR,4331,4725,11587,01.194,551
2023-04-06T07:30:58,42.805,6.029,CST-1368DR,4331,4725,11585,01.194,551
2023-04-06T07:33:59,42.805,6.029,CST-1368DR,4331,4719,11572,01.199,552
2023-04-06T07:37:01,42.805,6.029,CST-1368DR,4331,4725,11585,01.194,552
2023-04-06T07:40:03,42.805,6.029,CST-1368DR,4331,4730,11598,01.190,551
2023-04-06T07:43:04,42.805,6.029,CST-1368DR,4331,4719,11572,01.199,551
2023-04-06T07:46:06,42.805,6.029,CST-1368DR,4331,4727,11590,01.193,551
2023-04-06T07:49:07,42.805,6.029,CST-1368DR,4331,4724,11582,01.195,551
2023-04-06T07:52:09,42.805,6.029,CST-1368DR,4331,4725,11587,01.194,551
2023-04-06T07:55:11,42.805,6.029,CST-1368DR,4331,4725,11585,01.194,551
2023-04-06T07:58:12,42.805,6.029,CST-1368DR,4331,4725,11585,01.194,551
2023-04-06T08:01:14,42.805,6.029,CST-1368DR,4331,4726,11587,01.194,551
2023-04-06T08:04:15,42.805,6.029,CST-1368DR,4331,4726,11588,01.193,551
2023-04-06T08:07:17,42.805,6.029,CST-1368DR,4331,4725,11586,01.194,551
2023-04-06T08:10:18,42.805,6.029,CST-1368DR,4331,4724,11583,01.195,552
2023-04-06T08:13:20,42.805,6.029,CST-1368DR,4331,4726,11588,01.193,551
2023-04-06T08:16:22,42.805,6.029,CST-1368DR,4331,4719,11571,01.199,551
2023-04-06T08:19:23,42.805,6.029,CST-1368DR,4331,4730,11598,01.190,551
2023-04-06T08:22:25,42.805,6.029,CST-1368DR,4331,4724,11584,01.195,551
2023-04-06T08:25:26,42.805,6.029,CST-1368DR,4330,4726,11590,01.193,551
2023-04-06T08:28:28,42.805,6.029,CST-1368DR,4331,4729,11595,01.191,551
2023-04-06T08:31:30,42.805,6.029,CST-1368DR,4331,4723,11581,01.196,551
2023-04-06T08:34:32,42.805,6.029,CST-1368DR,4331,4725,11586,01.194,551
2023-04-06T08:37:33,42.805,6.029,CST-1368DR,4331,4729,11595,01.191,551
2023-04-06T08:40:35,42.805,6.029,CST-1368DR,4331,4716,11563,01.202,551
2023-04-06T08:43:37,42.805,6.029,CST-1368DR,4330,4722,11582,01.195,551
2023-04-06T08:46:38,42.805,6.029,CST-1368DR,4331,4728,11592,01.192,551
2023-04-06T08:49:40,42.805,6.029,CST-1368DR,4331,4729,11596,01.191,551
2023-04-06T08:52:41,42.805,6.029,CST-1368DR,4331,4730,11599,01.190,551
2023-04-06T08:55:43,42.805,6.029,CST-1368DR,4330,4716,11567,01.201,551
2023-04-06T08:58:44,42.805,6.029,CST-1368DR,4331,4727,11592,01.192,551
2023-04-06T09:01:46,42.805,6.029,CST-1368DR,4331,4730,11598,01.190,551
2023-04-06T09:04:48,42.805,6.029,CST-1368DR,4331,4729,11595,01.191,551
2023-04-06T09:07:49,42.805,6.029,CST-1368DR,4331,4722,11578,01.197,551
2023-04-06T09:10:51,42.805,6.029,CST-1368DR,4331,4728,11593,01.192,551
2023-04-06T09:13:52,42.805,6.029,CST-1368DR,4331,4725,11586,01.194,551
2023-04-06T09:16:54,42.805,6.029,CST-1368DR,4330,4724,11586,01.194,551
2023-04-06T09:19:56,42.805,6.029,CST-1368DR,4331,4726,11589,01.193,551
2023-04-06T09:22:57,42.805,6.029,CST-1368DR,4331,4726,11588,01.193,551
2023-04-06T09:25:59,42.805,6.029,CST-1368DR,4331,4726,11587,01.194,551
2023-04-06T09:29:00,42.805,6.029,CST-1368DR,4330,4725,11587,01.194,551
2023-04-06T09:32:02,42.805,6.029,CST-1368DR,4331,4724,11582,01.195,551
2023-04-06T09:35:03,42.805,6.029,CST-1368DR,4330,4700,11527,01.214,551
2023-04-06T09:38:05,42.805,6.029,CST-1368DR,4330,4692,11508,01.221,551
2023-04-06T09:41:07,42.805,6.029,CST-1368DR,4330,4703,11535,01.212,551
2023-04-06T09:44:08,42.805,6.029,CST-1368DR,4330,4700,11527,01.214,551
2023-04-06T09:47:10,42.805,6.029,CST-1368DR,4330,4692,11507,01.221,551
2023-04-06T09:50:11,42.805,6.029,CST-1368DR,4330,4707,11545,01.208,551
2023-04-06T09:53:13,42.805,6.029,CST-1368DR,4330,4707,11545,01.208,551
2023-04-06T09:56:15,42.805,6.029,CST-1368DR,4330,4701,11529,01.214,551
2023-04-06T09:59:16,42.805,6.029,CST-1368DR,4330,4724,11586,01.194,552
2023-04-06T10:02:18,42.805,6.029,CST-1368DR,4330,4720,11576,01.197,551
2023-04-06T10:05:19,42.805,6.029,CST-1368DR,4330,4723,11583,01.195,551
2023-04-06T10:08:21,42.805,6.029,CST-1368DR,4330,4723,11584,01.195,551
2023-04-06T10:11:22,42.805,6.029,CST-1368DR,4331,4722,11578,01.197,551
2023-04-06T10:14:24,42.805,6.029,CST-1368DR,4331,4723,11582,01.195,551
2023-04-06T10:17:26,42.805,6.029,CST-1368DR,4331,4724,11582,01.195,551
2023-04-06T10:20:27,42.805,6.029,CST-1368DR,4330,4719,11573,01.198,551
2023-04-06T10:23:29,42.805,6.029,CST-1368DR,4330,4720,11575,01.198,551
2023-04-06T10:26:30,42.805,6.029,CST-1368DR,4330,4720,11576,01.197,551
2023-04-06T10:29:32,42.805,6.029,CST-1368DR,4331,4723,11580,01.196,551
2023-04-06T10:32:33,42.805,6.029,CST-1368DR,4330,4722,11580,01.196,551
2023-04-06T10:35:35,42.805,6.029,CST-1368DR,4330,4720,11576,01.197,551
2023-04-06T10:38:36,42.805,6.029,CST-1368DR,4330,4721,11578,01.197,551
2023-04-06T10:41:38,42.805,6.029,CST-1368DR,4331,4728,11594,01.191,551
2023-04-06T10:44:39,42.805,6.029,CST-1368DR,4331,4732,11603,01.188,551
2023-04-06T10:47:41,42.805,6.029,CST-1368DR,4330,4723,11584,01.195,551
2023-04-06T10:50:43,42.805,6.029,CST-1368DR,4330,4729,11598,01.190,551
2023-04-06T10:53:44,42.805,6.029,CST-1368DR,4330,4722,11582,01.195,551
2023-04-06T10:56:46,42.805,6.029,CST-1368DR,4330,4730,11601,01.189,551
2023-04-06T10:59:47,42.805,6.029,CST-1368DR,4330,4725,11587,01.194,551
2023-04-06T11:02:49,42.805,6.029,CST-1368DR,4330,4725,11587,01.194,551
2023-04-06T11:05:50,42.805,6.029,CST-1368DR,4330,4728,11595,01.191,551
2023-04-06T11:08:52,42.805,6.029,CST-1368DR,4330,4728,11597,01.190,551
2023-04-06T11:11:54,42.805,6.029,CST-1368DR,4330,4727,11593,01.192,551
2023-04-06T11:14:55,42.805,6.029,CST-1368DR,4330,4728,11597,01.190,551
2023-04-06T11:17:57,42.805,6.029,CST-1368DR,4330,4724,11586,01.194,551
2023-04-06T11:20:58,42.805,6.029,CST-1368DR,4330,4722,11582,01.195,551
2023-04-06T11:24:00,42.805,6.029,CST-1368DR,4330,4727,11593,01.192,551
2023-04-06T11:27:01,42.805,6.029,CST-1368DR,4330,4722,11581,01.196,551
2023-04-06T11:30:03,42.805,6.029,CST-1368DR,4330,4726,11592,01.192,551
2023-04-06T11:33:05,42.805,6.029,CST-1368DR,4330,4718,11571,01.199,551
2023-04-06T11:36:06,42.805,6.029,CST-1368DR,4330,4724,11586,01.194,551
2023-04-06T11:39:08,42.805,6.029,CST-1368DR,4331,4728,11594,01.191,551
2023-04-06T11:42:09,42.805,6.029,CST-1368DR,4330,4722,11582,01.195,551
2023-04-06T11:45:11,42.805,6.029,CST-1368DR,4330,4726,11592,01.192,551
2023-04-06T11:48:13,42.805,6.029,CST-1368DR,4330,4730,11601,01.189,551
2023-04-06T11:51:14,42.805,6.029,CST-1368DR,4330,4726,11590,01.193,551
2023-04-06T11:54:16,42.805,6.029,CST-1368DR,4330,4732,11605,01.187,551
2023-04-06T11:57:17,42.805,6.029,CST-1368DR,4330,4731,11602,01.188,551
2023-04-06T12:00:19,42.805,6.029,CST-1368DR,4330,4730,11600,01.189,551
2023-04-06T12:03:20,42.805,6.029,CST-1368DR,4330,4737,11617,01.183,551
2023-04-06T12:06:22,42.805,6.029,CST-1368DR,4330,4734,11609,01.186,551
2023-04-06T12:09:24,42.805,6.029,CST-1368DR,4330,4728,11596,01.191,551
2023-04-06T12:12:25,42.805,6.029,CST-1368DR,4330,4732,11606,01.187,551
2023-04-06T12:15:27,42.805,6.029,CST-1368DR,4330,4730,11601,01.189,551
2023-04-06T12:18:28,42.805,6.029,CST-1368DR,4330,4732,11606,01.187,551
2023-04-06T12:21:30,42.805,6.029,CST-1368DR,4330,4728,11595,01.191,551
2023-04-06T12:24:31,42.805,6.029,CST-1368DR,4330,4735,11614,01.184,551
2023-04-06T12:27:33,42.805,6.029,CST-1368DR,4330,4730,11600,01.189,551
2023-04-06T12:30:35,42.805,6.029,CST-1368DR,4330,4731,11604,01.188,551
2023-04-06T12:33:36,42.805,6.029,CST-1368DR,4330,4730,11601,01.189,551
2023-04-06T12:36:38,42.805,6.029,CST-1368DR,4330,4726,11590,01.193,551
2023-04-06T12:39:39,42.805,6.029,CST-1368DR,4330,4730,11600,01.189,551
2023-04-06T12:42:41,42.805,6.029,CST-1368DR,4330,4729,11599,01.190,551
2023-04-06T12:45:43,42.805,6.029,CST-1368DR,4330,4728,11595,01.191,551
2023-04-06T12:48:44,42.805,6.029,CST-1368DR,4330,4727,11593,01.192,551
2023-04-06T12:51:46,42.805,6.029,CST-1368DR,4330,4728,11595,01.191,551
2023-04-06T12:54:47,42.805,6.029,CST-1368DR,4330,4727,11594,01.191,551
2023-04-06T12:57:49,42.805,6.029,CST-1368DR,4330,4724,11586,01.194,551
2023-04-06T13:00:50,42.805,6.029,CST-1368DR,4330,4724,11586,01.194,551
2023-04-06T13:03:52,42.805,6.029,CST-1368DR,4330,4723,11583,01.195,551
2023-04-06T13:06:54,42.805,6.029,CST-1368DR,4330,4724,11586,01.194,551
2023-04-06T13:09:55,42.805,6.029,CST-1368DR,4330,4723,11582,01.195,551
2023-04-06T13:12:57,42.805,6.029,CST-1368DR,4330,4722,11582,01.195,551
2023-04-06T13:15:58,42.805,6.029,CST-1368DR,4330,4721,11579,01.196,551
2023-04-06T13:19:00,42.805,6.029,CST-1368DR,4330,4721,11579,01.196,551
2023-04-06T13:22:01,42.805,6.029,CST-1368DR,4330,4722,11581,01.196,551
2023-04-06T13:25:03,42.805,6.029,CST-1368DR,4330,4723,11583,01.195,551
2023-04-06T13:28:05,42.805,6.029,CST-1368DR,4330,4723,11582,01.195,551
2023-04-06T13:31:06,42.805,6.029,CST-1368DR,4330,4723,11583,01.195,551
2023-04-06T13:34:08,42.805,6.029,CST-1368DR,4330,4721,11579,01.196,551
2023-04-06T13:37:09,42.805,6.029,CST-1368DR,4330,4720,11576,01.197,551
2023-04-06T13:40:11,42.805,6.029,CST-1368DR,4330,4722,11581,01.196,551
2023-04-06T13:43:13,42.805,6.029,CST-1368DR,4330,4722,11580,01.196,551
2023-04-06T13:46:14,42.805,6.029,CST-1368DR,4330,4720,11577,01.197,551
2023-04-06T13:49:16,42.805,6.029,CST-1368DR,4330,4722,11581,01.196,551
2023-04-06T13:52:17,42.805,6.029,CST-1368DR,4330,4709,11550,01.206,551
2023-04-06T13:55:19,42.805,6.029,CST-1368DR,4330,4723,11584,01.195,552
2023-04-06T13:58:20,42.805,6.029,CST-1368DR,4330,4720,11575,01.198,551
2023-04-06T14:01:22,42.805,6.029,CST-1368DR,4330,4723,11584,01.195,551
2023-04-06T14:04:24,42.805,6.029,CST-1368DR,4330,4718,11572,01.199,551
2023-04-06T14:07:25,42.805,6.029,CST-1368DR,4330,4722,11581,01.196,551
2023-04-06T14:10:27,42.805,6.029,CST-1368DR,4330,4720,11575,01.198,551
2023-04-06T14:13:28,42.805,6.029,CST-1368DR,4330,4718,11571,01.199,551
2023-04-06T14:16:30,42.805,6.029,CST-1368DR,4330,4720,11577,01.197,552
2023-04-06T14:19:31,42.805,6.029,CST-1368DR,4330,4720,11575,01.198,551
2023-04-06T14:22:33,42.805,6.029,CST-1368DR,4330,4722,11580,01.196,551
2023-04-06T14:25:35,42.805,6.029,CST-1368DR,4330,4718,11571,01.199,551
2023-04-06T14:28:36,42.805,6.029,CST-1368DR,4330,4720,11577,01.197,551
2023-04-06T14:31:41,42.805,6.029,CST-1368DR,4330,4720,11576,01.197,551
2023-04-06T14:34:42,42.805,6.029,CST-1368DR,4330,4716,11567,01.201,551
2023-04-06T14:37:44,42.805,6.029,CST-1368DR,4330,4719,11573,01.198,551
2023-04-06T14:40:45,42.805,6.029,CST-1368DR,4330,4720,11576,01.197,551
2023-04-06T14:43:47,42.805,6.029,CST-1368DR,4330,4718,11571,01.199,552
2023-04-06T14:46:49,42.805,6.029,CST-1368DR,4330,4717,11568,01.200,551
2023-04-06T14:49:50,42.805,6.029,CST-1368DR,4330,4717,11569,01.200,551
2023-04-06T14:52:52,42.805,6.029,CST-1368DR,4330,4726,11590,01.193,551
2023-04-06T14:55:53,42.805,6.029,CST-1368DR,4330,4717,11569,01.200,551
2023-04-06T14:58:55,42.805,6.029,CST-1368DR,4330,4716,11567,01.201,551
2023-04-06T15:01:57,42.805,6.029,CST-1368DR,4330,4718,11572,01.199,551
2023-04-06T15:04:58,42.805,6.029,CST-1368DR,4330,4715,11565,01.201,551
2023-04-06T15:08:00,42.805,6.029,CST-1368DR,4330,4713,11559,01.203,551
2023-04-06T15:11:01,42.805,6.029,CST-1368DR,4330,4711,11553,01.205,550
2023-04-06T15:14:03,42.805,6.029,CST-1368DR,4330,4710,11552,01.206,551
2023-04-06T15:17:04,42.805,6.029,CST-1368DR,4330,4710,11552,01.206,551
2023-04-06T15:20:06,42.805,6.029,CST-1368DR,4330,4713,11558,01.204,551
2023-04-06T15:23:08,42.805,6.029,CST-1368DR,4330,4698,11521,01.216,551
2023-04-06T15:26:09,42.805,6.029,CST-1368DR,4330,4708,11548,01.207,551
2023-04-06T15:29:11,42.805,6.029,CST-1368DR,4330,4710,11551,01.206,551
2023-04-06T15:32:12,42.805,6.029,CST-1368DR,4330,4710,11551,01.206,551
2023-04-06T15:35:14,42.805,6.029,CST-1368DR,4330,4710,11551,01.206,551
2023-04-06T15:38:15,42.805,6.029,CST-1368DR,4330,4711,11554,01.205,551
2023-04-06T15:41:17,42.805,6.029,CST-1368DR,4330,4712,11557,01.204,551
2023-04-06T15:44:19,42.805,6.029,CST-1368DR,4330,4714,11560,01.203,551
2023-04-06T15:47:20,42.805,6.029,CST-1368DR,4330,4715,11564,01.202,551
2023-04-06T15:50:22,42.805,6.029,CST-1368DR,4330,4712,11557,01.204,551
2023-04-06T15:53:23,42.805,6.029,CST-1368DR,4330,4713,11558,01.204,551
2023-04-06T15:56:25,42.805,6.029,CST-1368DR,4330,4713,11559,01.203,552
2023-04-06T15:59:27,42.805,6.029,CST-1368DR,4330,4716,11567,01.201,551
2023-04-06T16:02:28,42.805,6.029,CST-1368DR,4330,4712,11557,01.204,551
2023-04-06T16:05:30,42.805,6.029,CST-1368DR,4330,4714,11562,01.202,551
2023-04-06T16:08:31,42.805,6.029,CST-1368DR,4330,4715,11563,01.202,551
2023-04-06T16:11:33,42.805,6.029,CST-1368DR,4330,4713,11559,01.203,551
2023-04-06T16:14:34,42.805,6.029,CST-1368DR,4330,4712,11556,01.204,551
2023-04-06T16:17:36,42.805,6.029,CST-1368DR,4330,4716,11567,01.201,551
2023-04-06T16:20:38,42.805,6.029,CST-1368DR,4330,4720,11576,01.197,551
2023-04-06T16:23:39,42.805,6.029,CST-1368DR,4330,4716,11565,01.201,552
2023-04-06T16:26:41,42.805,6.029,CST-1368DR,4330,4716,11567,01.201,551
2023-04-06T16:29:42,42.805,6.029,CST-1368DR,4330,4721,11579,01.196,551
2023-04-06T16:32:44,42.805,6.029,CST-1368DR,4330,4717,11568,01.200,551
2023-04-06T16:35:45,42.805,6.029,CST-1368DR,4330,4712,11557,01.204,551